TimeCDT,TemperatureF,Dew PointF,Humidity,Sea Level PressureIn,VisibilityMPH,Wind Direction,Wind SpeedMPH,Gust SpeedMPH,PrecipitationIn,Events,Conditions,WindDirDegrees,DateUTC
12:15 AM,75.2,57.2,53,30.09,10.0,SSE,5.8,-,N/A,,Unknown,150,2013-08-22 05:15:00
12:35 AM,73.4,57.2,57,30.09,10.0,SE,5.8,-,N/A,,Unknown,140,2013-08-22 05:35:00
12:55 AM,71.6,59.0,64,30.09,10.0,SSE,6.9,-,N/A,,Unknown,150,2013-08-22 05:55:00
1:15 AM,71.6,59.0,64,30.08,10.0,SSE,6.9,-,N/A,,Unknown,150,2013-08-22 06:15:00
1:35 AM,71.6,59.0,64,30.08,10.0,SSE,8.1,-,N/A,,Unknown,150,2013-08-22 06:35:00
1:55 AM,69.8,59.0,68,30.07,10.0,SSE,6.9,-,N/A,,Unknown,160,2013-08-22 06:55:00
2:15 AM,69.8,59.0,68,30.07,10.0,SSE,6.9,-,N/A,,Unknown,150,2013-08-22 07:15:00
2:35 AM,69.8,59.0,68,30.08,10.0,SE,5.8,-,N/A,,Unknown,140,2013-08-22 07:35:00
2:55 AM,69.8,57.2,64,30.08,10.0,SSE,6.9,-,N/A,,Unknown,150,2013-08-22 07:55:00
3:15 AM,69.8,57.2,64,30.08,10.0,SSE,5.8,-,N/A,,Unknown,150,2013-08-22 08:15:00
3:35 AM,69.8,57.2,64,30.08,10.0,SSE,6.9,-,N/A,,Unknown,150,2013-08-22 08:35:00
3:55 AM,69.8,57.2,64,30.07,10.0,SE,6.9,-,N/A,,Unknown,140,2013-08-22 08:55:00
4:15 AM,69.8,55.4,60,30.07,10.0,SSE,6.9,-,N/A,,Unknown,150,2013-08-22 09:15:00
4:35 AM,68.0,55.4,64,30.07,10.0,SSE,8.1,-,N/A,,Unknown,150,2013-08-22 09:35:00
4:55 AM,68.0,55.4,64,30.07,10.0,South,5.8,-,N/A,,Unknown,170,2013-08-22 09:55:00
5:15 AM,66.2,57.2,73,30.07,10.0,South,3.5,-,N/A,,Unknown,170,2013-08-22 10:15:00
5:35 AM,68.0,55.4,64,30.07,10.0,Calm,Calm,-,N/A,,Unknown,0,2013-08-22 10:35:00
5:55 AM,68.0,55.4,64,30.07,10.0,ESE,5.8,-,N/A,,Unknown,120,2013-08-22 10:55:00
6:15 AM,68.0,57.2,68,30.07,10.0,SE,6.9,-,N/A,,Unknown,140,2013-08-22 11:15:00
6:35 AM,68.0,57.2,68,30.07,10.0,SSE,5.8,-,N/A,,Unknown,150,2013-08-22 11:35:00
6:55 AM,68.0,57.2,68,30.07,10.0,SSE,4.6,-,N/A,,Unknown,150,2013-08-22 11:55:00
7:15 AM,68.0,59.0,73,30.09,10.0,SSE,4.6,-,N/A,,Unknown,150,2013-08-22 12:15:00
7:35 AM,68.0,59.0,73,30.10,10.0,SSE,3.5,-,N/A,,Unknown,150,2013-08-22 12:35:00
7:55 AM,68.0,59.0,73,30.10,10.0,SSE,3.5,-,N/A,,Unknown,160,2013-08-22 12:55:00
8:15 AM,69.8,60.8,73,30.11,10.0,SSE,5.8,-,N/A,,Unknown,150,2013-08-22 13:15:00
8:35 AM,71.6,60.8,69,30.11,10.0,SSE,5.8,-,N/A,,Unknown,150,2013-08-22 13:35:00
8:55 AM,73.4,60.8,65,30.12,10.0,SSE,5.8,-,N/A,,Unknown,160,2013-08-22 13:55:00
9:15 AM,73.4,60.8,65,30.12,10.0,SSE,6.9,-,N/A,,Unknown,160,2013-08-22 14:15:00
9:35 AM,75.2,60.8,61,30.12,10.0,SSE,5.8,-,N/A,,Unknown,150,2013-08-22 14:35:00
9:55 AM,77.0,62.6,61,30.12,10.0,SSW,5.8,-,N/A,,Unknown,200,2013-08-22 14:55:00
10:15 AM,78.8,62.6,57,30.12,10.0,South,8.1,-,N/A,,Unknown,180,2013-08-22 15:15:00
10:35 AM,80.6,62.6,54,30.12,10.0,South,8.1,-,N/A,,Unknown,170,2013-08-22 15:35:00
10:55 AM,82.4,62.6,51,30.11,10.0,South,5.8,-,N/A,,Unknown,180,2013-08-22 15:55:00
11:15 AM,82.4,60.8,48,30.11,10.0,SW,6.9,-,N/A,,Unknown,230,2013-08-22 16:15:00
11:35 AM,86.0,60.8,43,30.11,10.0,SSW,4.6,-,N/A,,Unknown,210,2013-08-22 16:35:00
11:55 AM,86.0,60.8,43,30.10,10.0,South,5.8,-,N/A,,Unknown,170,2013-08-22 16:55:00
12:15 PM,87.8,55.4,33,30.10,10.0,SSW,9.2,-,N/A,,Unknown,210,2013-08-22 17:15:00
12:35 PM,87.8,53.6,31,30.09,10.0,SSW,6.9,-,N/A,,Unknown,200,2013-08-22 17:35:00
12:55 PM,89.6,53.6,29,30.08,10.0,SW,9.2,-,N/A,,Unknown,220,2013-08-22 17:55:00
1:15 PM,89.6,53.6,29,30.07,10.0,SSE,11.5,-,N/A,,Unknown,160,2013-08-22 18:15:00
1:35 PM,89.6,51.8,27,30.06,10.0,SSW,6.9,19.6,N/A,,Unknown,200,2013-08-22 18:35:00
1:55 PM,89.6,51.8,27,30.05,10.0,SSE,5.8,-,N/A,,Unknown,160,2013-08-22 18:55:00
2:15 PM,91.4,51.8,26,30.05,10.0,South,5.8,16.1,N/A,,Unknown,190,2013-08-22 19:15:00
2:35 PM,91.4,51.8,26,30.05,10.0,South,10.4,-,N/A,,Unknown,170,2013-08-22 19:35:00
2:55 PM,91.4,53.6,28,30.04,10.0,South,6.9,-,N/A,,Unknown,180,2013-08-22 19:55:00
3:15 PM,91.4,53.6,28,30.03,10.0,South,11.5,-,N/A,,Unknown,190,2013-08-22 20:15:00
3:35 PM,91.4,53.6,28,30.02,10.0,South,9.2,-,N/A,,Unknown,180,2013-08-22 20:35:00
3:55 PM,91.4,53.6,28,30.01,10.0,South,8.1,17.3,N/A,,Unknown,190,2013-08-22 20:55:00
4:15 PM,91.4,53.6,28,30.01,10.0,SSW,8.1,-,N/A,,Unknown,200,2013-08-22 21:15:00
4:35 PM,91.4,51.8,26,30.01,10.0,South,11.5,-,N/A,,Unknown,190,2013-08-22 21:35:00
4:55 PM,91.4,53.6,28,30.00,10.0,South,8.1,-,N/A,,Unknown,190,2013-08-22 21:55:00
5:15 PM,91.4,53.6,28,30.00,10.0,South,4.6,-,N/A,,Unknown,190,2013-08-22 22:15:00
5:35 PM,89.6,53.6,29,29.99,10.0,South,6.9,-,N/A,,Unknown,190,2013-08-22 22:35:00
5:55 PM,89.6,55.4,31,29.99,10.0,South,6.9,-,N/A,,Unknown,170,2013-08-22 22:55:00
6:15 PM,91.4,53.6,28,29.99,10.0,South,5.8,-,N/A,,Unknown,170,2013-08-22 23:15:00
6:35 PM,91.4,53.6,28,29.99,10.0,SSE,5.8,-,N/A,,Unknown,150,2013-08-22 23:35:00
6:55 PM,91.4,53.6,28,29.99,10.0,SE,4.6,-,N/A,,Unknown,140,2013-08-22 23:55:00
7:15 PM,89.6,53.6,29,29.98,10.0,SSE,6.9,-,N/A,,Unknown,160,2013-08-23 00:15:00
7:35 PM,89.6,51.8,27,29.98,10.0,SSE,6.9,-,N/A,,Unknown,160,2013-08-23 00:35:00
7:55 PM,87.8,53.6,31,29.98,10.0,SE,5.8,-,N/A,,Unknown,140,2013-08-23 00:55:00
8:15 PM,87.8,53.6,31,29.99,10.0,ESE,6.9,-,N/A,,Unknown,110,2013-08-23 01:15:00
8:35 PM,86.0,59.0,40,30.00,10.0,ESE,9.2,-,N/A,,Unknown,110,2013-08-23 01:35:00
8:55 PM,82.4,60.8,48,30.00,10.0,ESE,8.1,-,N/A,,Unknown,110,2013-08-23 01:55:00
9:15 PM,82.4,60.8,48,30.00,10.0,ESE,10.4,-,N/A,,Unknown,110,2013-08-23 02:15:00
9:35 PM,80.6,62.6,54,30.01,10.0,ESE,10.4,-,N/A,,Unknown,110,2013-08-23 02:35:00
9:55 PM,80.6,62.6,54,30.02,10.0,ESE,10.4,-,N/A,,Unknown,110,2013-08-23 02:55:00
10:15 PM,82.4,62.6,51,30.03,10.0,ESE,12.7,-,N/A,,Unknown,120,2013-08-23 03:15:00
10:35 PM,80.6,62.6,54,30.03,10.0,ESE,15.0,19.6,N/A,,Unknown,120,2013-08-23 03:35:00
10:55 PM,80.6,62.6,54,30.03,10.0,ESE,13.8,19.6,N/A,,Unknown,120,2013-08-23 03:55:00
11:15 PM,78.8,62.6,57,30.03,10.0,ESE,13.8,-,N/A,,Unknown,120,2013-08-23 04:15:00
11:35 PM,78.8,64.4,61,30.04,10.0,ESE,15.0,23.0,N/A,,Unknown,120,2013-08-23 04:35:00
11:55 PM,78.8,64.4,61,30.04,10.0,ESE,16.1,-,N/A,,Unknown,120,2013-08-23 04:55:00